Theta_e
320 319 320 320 320 321 322 323 325 326 327 327 328 328 328 328 329 332 333 333 333 332 332 331 332 331 331 330 330 329 327 318 317 315 313 316 323 336 331 335 331 332 330 319 317 317 313 314 314 320 317 313 313 312 317 317 314 308 299 297 295 295 294 297 296 296 297 297 299 302 302 301 300 303 305 306 305 305 307 312 315 320 321 324 326 328 328 328
319 319 320 320 320 320 322 323 325 326 327 327 327 328 328 328 328 331 333 333 333 332 332 332 332 331 330 329 330 327 321 317 313 314 313 325 334 335 334 333 333 331 328 316 316 315 312 311 313 317 313 310 320 314 317 312 314 304 299 298 296 299 298 299 298 297 296 297 299 300 300 301 302 302 305 301 301 304 304 310 313 315 320 324 325 326 326 327
319 319 320 320 320 320 321 323 325 326 327 327 326 327 328 327 326 326 330 332 332 332 332 331 331 330 329 329 328 325 319 315 312 310 315 336 336 336 335 334 332 331 320 315 316 316 314 315 315 314 313 309 311 309 313 311 310 307 300 296 298 302 298 298 298 298 298 299 299 298 299 300 303 304 305 302 299 301 302 305 308 313 316 320 323 325 325 326
318 319 319 320 320 320 321 322 325 326 327 327 326 327 327 327 326 326 328 331 332 332 332 331 331 329 328 327 327 322 318 313 308 314 318 337 336 337 335 334 333 328 320 320 321 316 319 319 316 314 313 310 311 315 308 309 306 307 301 297 300 300 296 297 298 298 298 299 298 297 298 297 299 302 303 301 299 298 300 307 310 311 317 320 322 323 325 325
318 318 319 319 320 320 320 322 322 326 327 326 326 326 327 327 326 327 328 331 332 332 331 331 330 328 327 327 325 319 313 308 311 319 321 337 337 336 334 334 332 319 323 323 321 320 317 316 315 315 313 309 310 307 305 308 310 307 302 304 300 297 294 298 298 297 296 298 298 296 297 298 300 300 300 300 297 294 298 303 309 315 320 322 322 323 324 324
317 318 318 319 320 319 319 321 322 324 326 326 326 326 326 326 326 327 329 331 331 331 331 331 330 328 326 326 323 317 316 298 315 319 331 336 335 335 333 333 330 320 320 319 319 318 314 315 313 308 307 311 307 304 306 307 310 301 304 306 302 298 296 299 299 298 297 298 297 297 299 299 298 298 298 299 299 299 302 303 306 316 322 325 325 324 322 323
317 318 318 318 319 318 321 323 323 323 324 326 326 326 326 325 325 326 327 330 331 331 331 330 329 328 326 324 319 314 313 315 317 321 331 335 334 333 333 331 328 320 320 316 316 314 314 313 312 308 308 309 309 306 307 307 309 305 301 307 304 300 298 299 299 298 296 298 299 299 299 298 298 297 299 298 298 300 301 309 311 317 322 326 323 323 323 323
317 317 318 318 319 320 320 322 322 322 324 325 325 326 326 325 325 325 326 328 330 331 330 329 328 328 326 319 313 309 310 312 322 324 330 333 331 331 329 321 318 318 315 314 314 312 313 311 309 310 307 306 308 308 306 306 307 304 304 307 305 301 298 298 297 298 298 299 299 299 300 300 298 298 298 298 298 299 303 313 316 317 321 325 323 323 322 322
317 317 317 318 319 319 320 320 322 323 324 325 325 326 326 326 326 327 328 329 329 329 330 329 328 328 326 319 312 307 307 319 324 325 329 328 325 324 320 316 317 315 314 316 316 315 313 310 309 310 303 306 311 307 304 304 300 306 306 308 301 302 299 299 299 299 299 300 301 300 298 298 301 299 298 299 300 300 302 316 316 316 318 322 323 322 322 322
317 317 318 318 318 319 320 321 321 323 324 324 325 325 326 326 326 327 329 329 329 329 329 328 328 327 322 316 313 305 316 324 324 326 326 324 322 318 317 317 316 314 314 317 319 319 313 313 312 314 311 310 311 305 305 305 302 308 307 307 301 301 303 301 302 302 300 301 298 299 299 301 302 300 296 298 300 298 304 313 316 315 315 320 323 322 322 322
316 317 318 318 319 319 318 319 322 322 322 323 323 324 325 325 325 326 329 329 329 329 329 328 327 325 317 318 309 306 322 323 323 324 325 323 318 315 315 316 316 315 316 315 316 321 320 317 316 316 314 306 309 305 305 306 306 309 308 303 304 305 305 304 302 302 299 300 298 299 298 300 301 299 299 300 299 303 303 307 313 315 315 316 321 322 321 322
316 317 317 318 318 319 318 320 321 322 322 323 323 323 323 324 324 325 326 329 328 328 328 328 327 322 318 315 312 311 321 323 323 323 325 321 317 316 317 318 318 317 316 313 316 322 322 320 320 313 306 313 303 305 306 306 305 306 306 302 302 305 303 305 303 302 303 303 300 301 300 298 297 295 299 301 300 303 303 304 306 312 314 314 319 321 320 321
316 317 317 317 318 318 318 319 322 321 322 322 322 322 322 323 323 324 324 324 328 328 327 327 325 321 316 307 314 320 322 323 322 322 322 320 318 317 317 318 317 319 317 316 316 321 321 320 320 315 314 310 305 305 308 307 303 304 302 300 301 300 299 305 307 306 302 305 303 304 293 298 300 301 302 302 301 300 302 302 303 305 308 309 314 318 318 320
316 317 317 317 318 319 318 319 321 322 322 322 321 321 321 321 322 323 323 322 327 328 327 327 324 318 314 310 318 321 324 322 323 321 319 319 316 314 316 317 319 319 318 318 318 320 321 323 321 314 315 310 305 313 308 306 305 298 302 302 295 295 295 304 306 305 302 302 303 305 296 298 302 304 303 304 302 300 300 301 302 303 304 304 307 315 316 318
316 316 316 317 318 318 319 321 321 320 320 321 321 321 321 321 322 322 323 323 326 329 327 326 321 314 309 313 318 322 330 321 319 318 319 316 313 312 313 317 318 319 318 318 319 322 323 322 318 312 307 308 310 306 303 302 302 303 299 294 296 295 296 298 303 305 301 300 301 303 295 298 303 306 305 301 301 301 300 299 301 303 304 304 305 311 315 316
315 316 316 316 318 318 319 319 319 319 320 321 321 320 319 320 321 322 324 324 326 328 326 319 315 314 309 306 316 327 320 313 314 319 319 317 314 311 314 316 317 318 318 318 321 322 321 321 317 314 308 308 307 303 300 299 300 303 297 290 294 294 295 295 300 303 304 298 299 301 295 295 300 303 301 300 301 300 299 298 300 304 305 304 305 309 313 315
315 316 316 316 317 319 319 319 318 319 320 320 320 319 319 319 320 321 323 326 327 328 322 314 314 317 303 314 320 315 312 314 317 316 317 317 315 315 315 314 313 315 317 318 319 319 318 313 312 312 311 305 304 303 297 294 295 297 297 291 294 295 295 292 297 300 300 299 296 297 296 296 299 298 299 301 300 299 298 298 299 303 304 304 305 308 312 314
315 316 317 316 315 318 319 318 319 319 319 319 318 317 316 319 321 321 321 325 326 324 320 320 315 310 306 310 307 310 316 314 314 315 315 316 317 315 315 312 313 314 315 312 314 312 313 306 308 303 304 302 302 300 296 291 295 295 294 291 293 297 296 296 295 298 297 296 297 296 295 297 301 301 297 297 298 299 299 298 298 299 303 303 305 308 310 312
315 316 317 316 316 318 317 317 318 318 319 319 318 319 318 319 314 311 312 318 313 308 303 303 306 296 295 303 315 316 315 316 316 314 310 313 315 315 314 315 314 311 307 306 306 309 308 304 305 301 297 299 300 301 298 298 301 298 297 295 295 294 294 295 298 299 299 293 292 293 295 297 299 299 300 300 296 297 299 298 298 297 299 303 304 307 309 310
315 315 316 317 317 317 316 317 318 319 319 314 312 311 308 304 304 304 307 309 309 309 307 308 310 312 310 310 313 317 318 318 309 311 312 314 313 313 312 313 310 311 306 301 304 305 306 298 297 297 299 301 302 303 301 302 303 301 299 298 297 297 297 300 298 296 299 294 293 294 294 295 295 296 299 300 299 296 296 297 298 298 297 301 304 306 309 310
314 316 315 316 316 317 317 317 318 318 318 312 310 306 298 300 295 293 300 304 307 313 309 309 310 310 308 313 315 312 309 309 311 309 311 316 313 311 308 310 305 302 304 305 303 306 305 297 297 300 302 302 303 304 304 303 302 300 298 297 297 299 297 300 297 296 298 296 292 293 293 294 295 298 298 298 298 298 297 297 297 298 299 299 303 305 307 310
314 314 316 316 316 317 317 317 318 317 317 311 309 304 305 306 307 309 307 299 306 310 311 310 312 309 315 316 317 316 313 306 306 308 313 314 309 306 306 306 303 300 304 303 301 299 298 296 299 302 305 305 305 304 304 302 300 300 299 299 297 297 296 294 293 295 296 296 291 292 292 294 296 297 299 299 299 299 300 300 300 298 298 299 301 305 306 306
315 316 315 315 315 317 317 317 317 316 311 307 305 305 304 307 308 309 307 302 303 309 309 309 308 309 311 316 317 317 307 303 301 307 309 312 308 308 307 304 302 303 303 302 297 296 294 298 301 304 305 303 303 304 303 302 302 297 297 296 296 298 293 289 291 293 295 294 292 291 289 292 294 294 296 298 300 302 301 301 301 300 299 299 300 302 304 305
316 315 315 315 316 317 318 316 316 312 308 308 307 305 307 309 310 309 302 292 296 305 308 309 311 310 310 309 315 312 307 305 306 304 314 312 306 309 307 305 302 302 299 301 300 297 296 301 305 304 304 303 301 302 301 299 297 298 298 295 296 296 297 291 289 291 292 293 294 291 290 292 293 294 296 299 299 299 301 300 300 300 300 301 302 301 303 305
314 314 315 315 314 315 316 315 309 306 309 307 305 308 309 310 310 308 300 294 296 300 312 310 313 312 313 318 317 309 308 308 307 311 313 312 308 307 305 309 305 300 301 302 301 299 299 304 306 304 303 303 302 300 300 299 295 295 297 298 296 297 292 291 291 290 286 287 291 292 285 284 289 292 293 297 296 297 298 298 300 299 299 299 299 300 301 302
314 315 315 315 315 315 315 307 305 308 307 303 305 309 310 311 310 308 298 285 285 298 305 297 315 305 319 309 312 310 309 301 310 312 313 314 315 309 308 304 306 298 301 301 300 300 300 304 304 302 302 301 301 299 300 301 295 292 295 300 299 299 293 292 291 292 285 284 290 292 287 283 288 291 292 293 293 296 297 298 300 302 301 300 299 300 300 301
314 314 314 315 315 315 306 300 310 308 301 302 309 309 310 309 310 306 294 284 284 297 295 306 307 307 315 310 310 309 294 297 310 311 311 315 310 313 304 302 304 305 305 304 298 295 302 302 302 302 301 299 298 297 299 301 296 292 297 300 299 299 294 293 294 290 287 289 291 289 288 282 283 290 295 296 295 295 296 297 299 301 302 302 301 300 300 301
314 313 313 315 315 313 306 308 306 302 302 307 310 309 310 309 308 305 291 280 279 301 296 301 306 316 313 311 310 304 303 308 301 306 313 315 314 308 306 301 301 300 303 302 290 298 302 299 300 299 299 297 297 299 300 302 298 295 298 300 299 300 298 297 295 291 291 287 285 284 288 285 282 286 291 293 292 294 295 297 298 299 301 302 303 302 301 302
313 312 312 314 314 313 310 308 306 302 307 309 309 309 310 309 303 291 280 277 293 295 315 300 316 311 309 310 304 307 305 307 300 306 311 313 313 308 302 303 304 302 304 302 295 294 302 302 302 302 299 296 299 301 302 303 299 299 299 299 299 297 298 297 290 290 290 288 284 285 287 283 287 287 292 291 291 293 296 297 299 300 300 301 302 302 301 300
313 312 312 313 311 308 307 309 306 308 309 309 309 309 308 305 296 285 279 273 298 287 301 303 303 301 306 300 301 305 301 303 305 307 309 306 308 308 306 310 304 301 299 299 296 298 298 305 306 303 300 301 301 302 301 303 301 300 298 297 295 293 291 289 289 285 288 286 285 287 287 286 284 286 291 291 291 295 296 295 297 299 300 301 302 302 302 300
313 313 312 312 305 307 307 302 306 309 309 309 309 308 304 297 284 280 276 282 293 290 302 301 297 307 301 298 295 302 302 302 303 305 300 305 302 306 305 301 303 298 293 293 291 294 299 302 302 300 305 303 305 300 300 301 301 300 293 291 294 290 290 288 287 288 286 284 287 289 288 289 282 282 286 294 293 292 295 295 297 298 298 299 299 301 302 301
312 312 312 308 308 309 303 300 307 310 309 309 308 302 297 281 286 279 277 297 283 288 288 294 302 301 300 301 299 299 297 300 303 302 298 299 298 298 299 294 297 289 289 291 290 292 294 298 299 299 300 304 300 299 296 300 298 298 294 294 290 285 287 285 285 283 284 285 288 286 288 284 287 291 292 294 295 297 294 296 298 297 297 297 296 297 298 299
311 310 310 309 309 306 308 309 310 309 309 307 303 299 288 282 274 283 283 285 282 292 288 297 298 300 299 298 296 299 302 296 302 301 301 300 299 298 302 300 300 297 287 293 290 289 289 291 293 298 299 301 303 296 291 291 295 296 294 290 288 283 283 283 284 286 285 285 285 285 285 286 285 291 297 298 301 301 300 296 295 296 295 295 295 294 296 296
311 310 306 307 308 309 309 310 310 309 306 303 299 292 286 280 279 289 285 285 285 292 296 293 299 300 299 294 296 299 295 300 300 299 300 296 298 294 297 300 301 298 297 293 287 289 285 286 292 295 293 299 302 301 296 292 295 296 295 295 290 289 285 282 284 281 282 281 282 283 283 281 283 287 289 293 295 293 296 298 294 293 293 293 293 296 294 293
311 309 308 308 308 309 309 310 309 309 305 300 292 287 279 279 286 282 283 285 285 290 290 294 297 297 295 297 299 300 299 293 301 298 297 296 293 295 295 296 300 300 297 290 290 290 290 289 294 299 296 299 299 298 298 297 294 293 295 296 290 289 288 284 282 282 277 277 277 278 282 281 287 290 293 295 293 291 290 292 293 294 293 294 295 295 295 295
307 304 307 305 305 307 309 309 308 307 302 295 287 283 281 284 282 287 286 292 290 286 289 291 292 294 293 293 297 297 301 295 298 298 296 297 297 295 298 299 298 299 295 291 292 287 291 286 292 297 295 300 299 298 298 302 288 293 295 291 292 294 291 284 284 284 280 278 278 277 282 285 288 294 298 299 297 295 291 291 291 291 292 292 293 294 294 295
301 302 298 300 301 307 308 308 307 304 300 293 286 281 285 283 289 289 294 290 290 292 288 285 284 290 288 289 292 295 296 299 297 296 291 298 294 298 297 298 301 299 300 297 289 292 288 286 289 294 291 297 296 299 299 301 297 294 289 294 295 295 294 289 284 282 280 277 277 280 281 283 283 285 290 290 292 293 292 291 292 291 290 292 293 293 294 295
299 299 299 298 301 307 310 308 306 301 296 288 283 286 285 285 292 293 295 295 293 293 288 286 285 287 288 289 289 293 296 293 293 295 291 296 290 302 298 298 301 300 300 299 294 291 294 284 289 290 294 295 298 299 296 298 297 297 293 299 295 286 286 285 284 279 280 279 278 278 280 282 284 287 290 292 290 293 292 292 290 291 290 292 292 293 292 292
300 298 292 297 304 307 308 307 304 297 290 284 283 283 286 289 294 292 293 296 296 293 288 287 285 285 288 289 292 295 295 290 294 292 290 293 290 299 298 300 297 301 299 299 294 292 294 285 287 290 292 293 295 296 288 294 294 295 298 296 295 290 286 285 288 284 284 280 275 275 278 280 286 288 292 295 298 295 292 290 291 291 292 292 293 293 293 294
296 292 289 299 303 307 307 305 298 293 287 282 284 284 290 285 290 294 294 295 293 292 289 287 286 285 285 286 295 291 295 295 294 292 293 294 294 301 298 302 298 299 299 299 294 297 288 290 283 288 291 294 289 292 292 294 289 290 293 291 292 288 288 288 288 288 283 274 274 273 276 278 284 291 295 296 297 297 293 293 292 292 292 293 294 294 294 295
295 291 290 301 304 306 304 298 290 285 284 289 290 285 286 285 290 291 294 295 294 296 293 289 288 285 285 287 291 296 293 294 294 292 293 293 295 289 300 300 301 298 299 296 294 294 287 288 285 286 287 289 293 296 295 296 296 294 294 292 294 290 285 286 284 288 282 283 278 273 279 276 286 291 296 296 296 294 293 293 293 293 293 293 294 292 294 296
291 285 288 300 304 305 298 287 287 290 287 283 282 287 287 293 288 289 292 294 293 291 296 293 291 287 286 287 290 292 294 293 294 293 294 292 296 296 299 304 302 302 298 293 293 296 290 287 288 285 288 290 293 293 293 296 297 294 295 292 295 292 288 285 283 283 283 287 279 277 277 280 290 290 291 294 295 295 293 293 294 294 294 293 293 293 294 295
290 287 298 302 305 302 294 287 289 287 284 289 294 292 293 290 289 290 289 291 290 292 291 292 290 288 289 289 288 289 292 290 294 292 294 295 296 298 301 302 303 301 300 296 297 292 294 287 286 284 287 289 291 293 293 293 297 293 294 293 293 292 292 291 287 282 286 281 283 280 280 280 286 291 290 290 290 290 291 291 293 292 293 293 294 294 294 295
289 289 292 301 306 301 291 281 281 283 285 288 289 289 292 290 288 286 287 290 289 288 290 292 293 294 289 293 291 287 293 286 295 295 293 296 294 300 301 302 304 300 299 296 294 296 290 287 288 283 283 284 285 290 291 291 293 291 291 293 295 296 294 287 285 282 281 282 284 283 281 279 287 287 287 287 288 290 290 291 291 293 292 294 294 294 294 294
290 292 293 296 302 298 285 289 286 284 284 284 286 285 287 287 290 290 289 287 292 291 291 289 293 294 291 293 290 291 289 288 288 296 295 295 294 300 302 303 304 301 302 301 299 300 290 289 288 282 278 277 277 279 282 285 288 292 293 293 294 295 293 288 287 284 284 281 283 279 284 283 287 287 290 288 287 290 289 290 291 291 292 293 293 295 295 294
285 280 288 292 295 294 293 292 289 286 284 284 283 285 287 285 289 291 292 290 293 291 291 291 291 295 291 290 287 286 285 290 288 287 289 291 293 297 301 302 303 302 300 299 298 298 288 291 290 289 286 284 287 288 292 293 289 285 289 292 293 294 294 293 290 287 285 284 282 286 287 285 287 290 289 290 289 288 290 290 291 292 291 292 292 293 294 294
286 284 284 282 289 288 287 288 287 287 284 287 281 285 282 286 287 289 294 286 291 288 289 288 287 289 288 289 286 285 287 285 289 290 289 292 293 296 301 301 302 302 298 297 299 294 287 288 290 290 290 291 290 290 294 294 290 291 290 291 293 292 292 291 289 288 292 286 283 288 288 287 290 291 291 290 290 288 289 289 289 289 289 292 294 292 293 292
278 285 290 291 285 281 283 283 287 287 288 288 285 287 284 285 285 283 289 292 292 292 286 288 287 288 291 289 289 284 285 285 285 285 291 287 292 297 297 300 300 298 298 299 300 295 289 288 290 291 289 290 290 292 293 293 293 292 292 292 291 292 291 289 290 293 292 288 287 292 292 289 292 293 295 294 292 292 292 291 291 291 290 290 291 292 293 294
284 286 288 290 283 286 287 287 287 286 285 285 285 287 284 284 283 287 285 287 289 288 290 283 285 287 288 288 289 285 286 285 284 286 287 286 289 294 291 296 299 299 300 296 297 293 293 288 289 291 288 287 289 290 292 292 292 291 291 292 293 292 291 292 292 293 293 291 293 294 293 292 295 294 295 297 294 292 292 291 290 290 291 292 292 292 293 293
281 281 282 286 284 285 285 286 286 285 283 286 281 284 285 285 284 287 289 287 283 286 290 286 288 288 288 288 288 286 289 291 289 285 289 291 288 290 294 295 291 294 299 295 295 295 296 287 291 289 286 285 288 289 291 291 291 289 291 292 292 292 292 292 292 293 292 292 293 293 292 292 296 294 295 293 295 294 292 291 291 292 292 292 292 293 293 293
287 286 286 284 281 282 284 283 284 284 282 282 280 284 285 286 285 288 287 290 288 286 287 285 289 289 290 289 287 288 291 290 293 293 293 293 290 294 292 291 298 293 293 291 293 292 296 288 290 288 286 284 286 286 288 289 289 289 289 290 290 290 288 291 290 293 291 289 291 291 290 291 296 294 295 293 293 293 293 293 292 292 292 291 292 293 292 291
287 288 288 284 279 286 282 283 283 283 277 282 283 284 283 285 288 289 286 290 291 292 290 289 290 289 288 287 286 289 293 294 293 297 297 298 299 297 297 297 297 296 291 293 293 291 293 288 287 287 285 285 286 285 285 285 284 283 286 289 291 292 293 293 294 295 294 294 290 288 289 296 293 296 297 294 291 291 292 293 293 292 292 291 293 293 292 291
Wind_Speed
24 24 24 24 24 24 23 23 24 23 22 23 23 22 20 20 19 19 20 19 21 22 14 15 16 18 17 17 18 17 16 10 9 10 11 13 10 8 12 10 15 12 9 8 8 9 4 7 6 2 5 4 1 2 1 1 1 2 1 2 2 2 2 1 1 1 5 4 2 1 0 3 2 1 0 1 4 2 3 6 2 8 6 4 8 15 14 12
24 24 24 24 25 25 24 24 25 24 22 22 24 23 21 21 20 18 19 20 21 20 16 15 17 18 18 19 20 19 14 9 12 11 18 12 9 14 13 12 13 12 8 9 13 11 10 6 6 4 6 3 1 1 1 1 1 1 1 1 4 0 1 0 0 2 2 4 5 2 3 3 2 4 0 2 1 3 3 2 4 6 6 9 11 13 13 12
25 24 24 24 25 26 25 25 25 24 21 20 23 23 22 21 22 21 18 20 20 21 18 20 20 18 18 19 20 18 11 6 8 15 18 7 12 12 12 12 13 12 8 11 9 9 11 10 5 5 2 4 1 2 1 1 1 2 1 2 1 2 2 3 3 1 2 5 6 4 1 4 1 2 1 1 2 2 6 5 2 7 7 9 9 11 11 11
25 25 25 25 25 26 26 26 27 24 23 22 24 25 21 22 23 22 19 20 22 23 21 21 23 20 19 19 19 13 7 6 14 11 10 12 17 17 16 13 13 10 5 6 4 6 10 10 7 7 2 4 1 2 4 3 3 1 2 3 2 2 2 2 2 2 2 1 4 4 1 3 2 1 2 2 1 2 4 6 11 10 13 12 12 12 11 11
26 26 26 25 26 26 27 26 26 25 24 25 25 24 21 22 21 22 20 20 22 22 21 19 19 20 19 21 23 12 12 6 8 14 12 16 16 18 18 15 14 8 5 6 6 5 13 12 9 3 3 4 3 3 3 3 2 2 4 2 0 1 4 1 1 2 2 3 5 4 6 1 1 1 1 2 2 2 3 4 8 13 15 15 14 12 11 12
27 27 27 26 26 27 27 25 26 27 26 26 26 24 23 23 22 20 19 21 24 23 22 21 15 16 21 18 15 12 15 13 6 13 18 17 17 17 17 15 14 8 7 8 4 5 14 9 12 6 3 3 7 7 3 6 3 4 3 3 1 1 3 1 0 2 2 1 3 2 1 0 1 0 2 4 5 3 4 3 8 12 17 16 14 13 12 12
27 27 27 26 26 27 26 24 25 26 27 27 27 25 24 23 23 21 17 20 26 25 23 22 18 18 17 20 13 13 16 3 5 11 26 20 18 17 16 15 12 8 7 9 6 7 10 12 10 8 5 4 3 2 4 6 2 3 4 4 5 3 4 3 1 1 1 6 1 1 1 1 0 0 0 2 3 5 3 1 7 13 12 13 14 14 16 16
27 27 26 26 25 25 25 25 25 27 27 27 28 26 25 23 23 22 18 18 21 26 27 22 21 21 19 10 11 9 11 8 0 13 27 23 17 15 14 9 12 9 8 13 11 10 10 14 13 8 4 9 5 5 2 6 5 5 1 3 4 3 4 4 3 1 1 0 0 4 2 2 2 1 0 3 4 4 3 4 8 12 13 13 14 14 12 12
27 27 27 25 24 25 23 26 27 27 28 26 27 26 21 23 22 21 21 21 22 20 25 27 23 20 20 8 10 11 13 5 4 15 21 21 16 13 14 8 10 13 8 7 6 7 8 8 7 9 5 7 5 6 4 9 3 5 6 1 0 1 5 5 4 4 3 1 1 1 2 4 5 3 2 7 8 5 5 7 9 12 13 13 13 14 12 12
27 27 26 24 24 24 24 25 26 25 28 27 26 23 19 23 23 20 20 22 26 28 26 29 26 23 16 8 5 12 8 4 8 14 17 18 17 14 10 10 14 12 9 5 5 5 5 5 5 4 7 1 7 6 5 6 3 6 7 4 4 1 2 3 4 4 5 3 3 2 2 2 2 2 4 3 6 4 7 8 8 12 13 12 11 11 12 13
27 28 27 25 21 20 24 23 21 24 25 27 24 22 21 23 23 21 20 20 23 31 29 26 27 21 13 10 12 13 3 9 7 14 19 19 19 16 11 11 11 11 11 6 7 3 6 9 4 5 3 3 5 4 5 4 4 8 8 3 0 2 1 1 2 3 3 2 5 4 5 4 3 1 8 7 2 9 9 9 9 10 10 10 10 11 10 11
27 28 28 27 24 24 26 24 23 22 25 25 19 20 20 23 23 20 18 20 23 25 29 26 28 16 11 11 10 6 4 7 10 12 15 19 17 16 15 15 14 14 16 13 6 3 6 8 3 3 5 5 4 4 2 3 4 5 7 7 2 0 2 3 3 3 3 3 5 4 1 4 3 6 7 10 3 6 9 9 10 10 9 9 9 9 8 10
26 26 27 26 25 24 26 27 25 26 25 24 22 22 19 17 20 21 20 15 22 25 26 29 21 11 8 11 9 5 1 11 12 15 12 11 10 7 9 10 7 8 13 15 9 4 6 8 4 5 4 6 8 4 3 4 2 5 3 4 2 0 5 10 4 4 5 3 6 5 5 7 8 12 10 11 9 7 7 9 9 9 9 8 8 9 9 7
25 26 26 26 26 26 28 27 28 29 29 23 25 22 20 17 16 19 16 14 19 28 27 33 18 11 7 5 3 3 3 9 15 15 16 12 15 7 8 5 6 5 5 9 6 5 7 8 6 2 1 7 4 1 8 2 3 6 2 2 2 3 6 4 9 7 7 3 7 5 7 5 3 7 9 7 8 10 10 9 9 9 8 8 8 9 10 9
25 26 27 26 26 27 26 27 25 24 25 25 21 21 19 15 14 16 15 13 17 28 31 27 18 12 7 3 6 6 6 7 15 15 14 18 16 12 11 6 9 7 7 9 5 5 7 7 6 2 1 1 7 6 6 3 1 2 6 4 2 7 4 4 3 10 11 1 5 6 6 9 7 10 7 3 11 12 11 9 8 8 9 8 7 9 10 10
26 25 26 28 29 27 25 27 29 28 25 22 21 21 19 14 10 10 13 11 16 23 22 18 15 11 10 7 3 3 5 16 14 16 12 18 18 17 13 9 9 8 11 4 6 5 6 2 3 3 5 0 7 7 7 5 1 2 5 2 6 4 3 3 1 7 9 4 1 8 6 3 3 5 2 4 10 10 10 7 7 9 10 9 8 8 9 8
26 27 27 27 28 28 28 28 26 27 24 24 24 21 17 12 11 10 8 13 13 15 19 15 20 12 11 2 3 12 11 10 14 8 11 11 17 18 15 14 9 11 9 8 8 8 4 3 2 3 2 4 6 9 9 3 4 6 3 3 4 6 3 3 2 1 3 6 5 5 6 6 4 3 2 1 5 8 7 8 9 9 8 8 7 8 9 10
27 28 25 26 30 28 28 32 30 28 26 24 22 18 12 12 12 13 6 8 9 12 9 2 18 12 4 2 17 16 13 11 13 14 13 10 14 19 17 10 9 13 13 10 4 10 6 3 2 6 3 6 8 7 11 10 10 10 8 4 2 2 6 6 5 5 5 4 7 6 8 12 9 4 3 4 2 4 7 8 9 9 9 9 8 8 9 10
28 29 27 25 26 25 25 27 29 27 26 22 20 20 18 12 5 6 5 10 13 10 12 13 17 19 13 18 13 16 14 14 12 15 11 14 10 12 9 10 15 17 12 11 8 11 7 3 1 6 11 10 10 9 7 7 10 12 10 8 4 5 6 7 6 2 12 5 5 6 11 12 9 9 7 6 4 4 7 6 6 6 8 9 10 9 9 9
26 26 27 28 29 27 25 27 26 27 27 21 15 12 6 8 7 8 1 4 15 11 6 21 15 5 11 20 17 12 13 15 16 11 18 12 16 13 12 12 11 10 15 12 13 11 7 11 13 13 11 11 10 10 6 7 9 7 6 6 8 7 4 5 5 3 8 4 9 11 11 8 7 8 9 9 6 5 7 8 8 8 7 9 10 11 12 11
26 27 29 29 29 29 28 26 23 24 32 18 16 13 15 16 13 12 9 3 7 12 18 25 24 11 10 14 18 24 20 11 16 15 17 14 17 20 11 13 13 11 12 12 13 5 8 11 13 12 17 18 15 12 11 5 4 7 6 5 7 6 5 3 5 2 5 6 5 6 7 9 11 9 6 6 5 11 12 11 9 10 8 7 11 12 12 13
29 31 28 26 26 28 27 26 28 30 25 14 16 13 5 13 0 2 12 13 14 2 12 28 8 9 12 16 17 21 19 16 14 17 10 19 16 17 14 15 18 15 12 9 7 9 11 15 11 10 10 11 10 9 8 6 4 2 4 5 4 6 1 3 2 4 3 1 5 1 6 10 8 9 9 8 10 10 12 13 12 10 10 8 9 11 11 7
29 27 28 28 25 27 26 28 30 28 12 12 14 14 6 8 8 3 9 2 1 3 14 22 16 18 17 10 11 14 19 18 19 14 18 15 22 14 22 16 16 13 14 15 15 12 12 8 10 10 11 12 9 11 8 5 1 2 2 2 5 4 5 1 3 0 1 4 1 0 4 9 6 7 11 11 10 12 10 12 13 12 14 13 12 11 11 11
31 31 28 26 24 26 28 32 28 17 12 15 15 12 8 10 5 10 10 3 1 7 15 13 17 18 21 24 14 21 25 16 23 24 17 16 19 13 17 19 18 15 16 19 18 16 9 8 9 10 11 12 13 11 10 7 6 3 4 3 5 2 5 5 5 2 0 3 1 3 6 9 7 10 9 12 11 9 9 7 9 11 11 13 11 10 13 15
33 33 31 28 25 23 30 32 14 10 9 7 3 6 9 8 13 12 11 2 2 3 10 11 2 7 10 4 19 17 15 12 16 18 15 18 15 16 9 8 10 14 15 15 10 8 5 11 14 15 13 12 13 12 12 8 7 4 4 7 6 3 3 3 6 6 2 2 2 2 4 4 3 4 10 9 2 9 8 6 10 12 12 9 11 13 12 11
28 31 29 29 29 29 30 16 10 12 14 7 10 9 6 14 12 12 10 3 6 7 11 15 2 10 3 11 12 6 18 12 8 12 14 12 13 17 8 9 7 14 14 15 11 4 4 9 13 15 14 12 12 11 8 9 6 5 6 7 7 3 5 7 6 3 0 2 2 1 7 7 6 8 5 5 4 10 6 10 16 12 11 10 11 11 12 13
25 24 24 23 26 29 20 2 9 13 11 5 12 9 9 16 13 13 6 1 4 9 18 5 6 5 4 19 15 17 17 10 5 4 13 11 17 6 18 9 6 4 9 5 1 7 6 15 15 10 12 13 10 11 7 11 7 5 2 8 5 5 8 6 6 4 1 1 0 2 1 2 8 9 9 11 10 10 8 11 13 14 14 13 12 12 12 13
27 26 24 26 30 31 3 9 16 15 10 12 12 10 12 16 16 8 2 9 8 13 13 11 4 3 3 18 22 18 12 25 14 14 9 13 10 10 12 20 14 19 14 12 17 2 18 12 14 14 11 9 12 7 6 11 7 4 2 7 8 6 6 7 6 3 1 2 6 2 1 2 6 7 4 3 6 10 12 11 13 14 14 15 16 14 14 13
25 25 26 24 31 10 6 8 11 11 8 14 8 11 13 14 13 7 5 3 2 6 3 14 2 5 10 17 20 8 17 19 15 17 9 12 1 7 11 16 12 16 9 12 10 1 6 15 16 15 10 11 7 7 9 13 8 1 2 5 4 6 4 6 4 5 0 1 6 3 1 2 12 5 8 2 5 11 10 12 14 15 16 15 14 13 11 7
27 23 26 23 14 10 4 2 5 9 16 15 13 11 17 16 8 9 4 5 1 10 5 4 10 15 19 19 14 13 22 7 3 11 2 4 5 2 4 9 16 14 8 5 5 6 2 6 10 11 13 8 8 9 5 8 4 5 6 9 6 6 4 3 4 4 2 6 5 6 6 3 9 4 9 7 8 10 9 5 7 8 8 10 12 11 10 9
28 28 25 22 11 8 10 7 11 13 14 13 13 14 15 7 5 6 9 2 6 4 4 14 11 22 25 24 16 13 18 12 15 20 7 5 3 3 12 7 2 11 5 4 3 1 5 7 7 3 8 4 10 5 2 4 8 8 3 5 8 3 5 5 2 3 3 4 2 8 8 8 7 5 7 6 5 3 7 8 11 10 10 9 8 9 9 9
28 28 22 10 8 4 9 14 15 14 15 14 14 14 13 8 4 6 5 2 7 3 1 13 15 22 23 20 16 21 17 10 16 18 17 14 12 15 16 15 12 13 13 14 10 3 10 12 2 3 4 13 8 10 1 5 5 7 8 8 10 2 2 4 2 5 7 4 0 2 7 2 17 9 8 9 12 12 7 8 10 10 10 8 6 6 7 6
27 22 15 9 11 2 7 14 12 12 15 16 13 9 7 7 9 5 3 4 2 2 4 1 16 27 23 23 16 18 21 22 19 18 16 14 18 14 19 19 21 16 18 15 13 10 3 2 1 6 4 5 13 13 7 7 8 11 12 10 9 4 6 7 3 2 2 1 2 2 4 8 3 9 13 21 21 11 12 10 7 7 7 5 3 4 5 6
23 19 11 4 6 8 8 14 11 10 10 9 14 8 2 5 5 5 4 3 2 1 2 0 18 22 25 16 19 21 13 10 26 18 19 14 15 15 11 8 17 8 8 13 9 9 11 11 10 11 7 5 14 13 7 3 10 8 5 11 7 6 4 8 6 9 6 4 2 2 4 7 5 5 0 7 8 8 8 10 7 5 5 5 2 0 1 4
21 15 12 8 9 11 14 10 12 12 10 7 10 10 12 9 1 7 3 4 1 3 2 6 14 22 16 11 14 21 15 14 22 18 15 18 17 16 17 16 15 11 13 16 7 6 17 3 4 9 1 5 9 4 7 10 5 1 4 5 5 10 4 3 2 3 3 2 1 2 7 4 6 6 9 9 7 6 4 4 4 5 3 2 3 4 4 4
18 7 9 7 10 8 11 9 9 9 13 10 7 9 12 6 6 5 5 6 5 6 5 5 2 22 15 10 12 18 5 10 25 22 12 17 16 19 16 15 19 19 19 17 12 10 7 9 4 8 1 16 11 8 5 14 11 7 8 10 8 2 3 3 1 0 4 3 7 2 7 7 8 12 15 16 10 8 1 4 1 5 4 3 5 5 5 5
11 8 7 4 5 6 9 11 8 7 10 11 8 8 2 2 1 3 5 10 7 10 7 9 3 8 13 14 15 19 5 10 20 14 15 14 13 15 17 10 11 16 18 14 5 3 14 6 1 7 3 2 1 8 6 7 5 6 8 10 5 3 3 5 6 1 2 5 4 4 7 7 2 10 4 5 5 6 3 5 6 4 4 5 6 6 8 7
8 7 8 6 3 2 8 10 9 5 5 3 4 5 1 3 1 2 3 6 5 3 5 1 1 3 7 12 13 17 13 14 16 13 10 17 3 14 15 12 13 11 12 8 14 7 12 7 1 2 7 3 5 7 3 3 2 11 7 7 11 5 7 4 2 5 7 7 3 3 4 7 8 9 6 10 4 5 5 6 4 5 5 7 7 8 6 4
8 9 5 4 5 3 7 7 9 6 4 3 2 4 2 2 1 2 4 2 2 8 5 2 2 2 3 11 12 11 19 14 18 13 14 9 8 17 18 12 14 14 12 14 8 7 6 7 2 3 3 4 4 8 11 11 2 1 7 9 4 3 0 8 8 1 4 7 2 6 3 8 7 6 9 18 17 11 6 5 7 8 7 8 8 6 6 5
9 5 3 2 4 3 8 7 8 6 2 4 3 2 2 3 1 3 7 1 2 3 3 4 1 3 4 2 14 13 11 17 21 10 9 10 7 15 20 13 14 14 12 14 5 11 6 2 7 3 1 6 8 7 15 15 13 8 9 8 5 1 2 4 0 5 5 3 4 2 4 6 8 9 14 17 16 11 6 9 8 7 8 9 8 7 6 5
3 5 3 1 2 1 10 9 6 5 4 0 3 3 3 2 2 5 6 6 3 4 2 8 5 3 2 3 8 8 8 14 15 12 7 11 12 12 11 15 16 19 15 9 10 7 4 5 13 7 6 9 10 4 5 10 11 11 12 13 14 11 8 10 8 1 3 3 6 5 11 4 9 3 7 11 10 6 6 8 7 8 10 9 8 6 6 6
6 7 3 1 1 3 13 8 2 2 2 3 2 2 3 5 4 5 5 6 6 3 3 6 4 5 2 3 1 2 6 11 15 13 8 14 11 9 17 20 18 18 17 14 15 5 6 4 11 10 8 10 4 0 1 4 7 3 6 6 7 5 4 4 9 8 3 6 3 2 3 9 7 2 4 8 7 8 7 8 8 8 9 8 7 6 6 6
5 5 3 3 1 2 6 6 4 3 2 0 4 5 5 4 4 3 5 5 4 3 2 3 5 5 1 2 2 4 4 4 15 13 10 13 18 13 12 19 16 16 12 9 12 2 11 6 12 4 4 3 1 1 1 2 8 4 6 3 7 12 14 11 3 3 8 3 5 3 5 4 2 1 2 2 0 1 1 5 7 3 3 4 5 5 5 3
5 6 5 4 3 4 3 5 7 5 2 4 3 6 2 4 3 2 5 5 3 3 3 2 3 3 6 2 2 3 4 4 8 11 8 8 8 7 17 19 24 15 18 12 14 13 9 6 13 8 6 2 3 1 1 2 2 6 9 11 13 12 8 3 4 2 2 8 7 8 13 3 5 1 2 3 3 2 4 1 5 6 3 4 5 5 5 5
7 4 5 2 1 2 3 1 9 7 5 6 3 7 3 4 2 3 4 3 2 3 2 3 2 5 5 5 5 4 7 4 4 6 1 7 3 8 18 21 26 17 10 9 10 8 4 8 15 17 19 17 15 14 14 14 18 13 11 14 12 16 17 9 11 6 10 3 8 5 10 4 6 4 2 2 0 1 1 2 1 3 5 6 5 6 6 5
1 7 3 4 1 2 2 2 2 7 7 4 5 2 2 5 4 3 6 6 3 4 5 2 5 6 10 10 5 2 2 3 4 0 2 5 3 4 14 20 21 13 13 18 17 10 4 8 10 13 17 18 17 6 2 9 8 4 7 15 16 10 9 8 3 7 13 4 8 9 8 1 5 6 5 5 4 4 4 3 3 2 2 4 4 5 6 6
1 4 4 6 5 2 1 2 4 3 5 3 4 1 4 5 6 5 3 3 2 2 2 4 1 5 6 8 5 4 2 3 2 0 1 1 3 5 19 20 18 18 17 14 18 7 4 7 12 12 14 11 4 5 11 16 17 15 15 14 11 10 10 15 15 18 12 5 8 11 11 11 17 9 8 8 8 4 4 3 3 3 5 6 6 5 5 4
4 1 3 1 2 7 5 1 1 7 5 5 3 2 4 5 4 4 3 2 4 2 3 2 5 5 5 5 7 7 7 4 3 3 2 1 1 9 12 13 13 13 15 5 13 9 8 10 10 11 12 8 9 10 12 10 12 15 19 19 21 17 15 16 18 18 10 11 18 23 19 17 21 11 13 12 7 5 7 8 9 7 2 3 4 6 6 7
4 3 1 3 4 4 2 3 3 8 9 4 3 5 7 7 6 2 4 3 1 1 2 3 2 3 2 4 1 5 10 7 3 2 1 1 1 11 8 9 10 14 14 11 11 3 7 5 8 10 8 6 8 12 12 14 11 11 14 15 17 19 20 21 20 18 17 13 17 21 12 19 23 9 15 13 6 6 5 3 1 1 4 7 7 6 8 8
3 6 1 2 4 5 3 4 6 8 6 2 3 2 5 6 7 3 2 3 3 2 2 4 4 5 4 4 4 6 4 2 4 6 5 1 0 1 10 7 7 4 11 9 6 4 13 6 14 8 7 6 9 11 14 16 15 14 15 16 16 16 17 18 17 16 13 15 17 21 21 22 14 6 8 5 10 9 5 5 5 8 8 9 8 8 9 9
2 1 2 8 7 1 3 2 5 9 7 2 3 3 5 6 6 6 3 3 4 6 5 5 6 6 4 4 2 1 1 3 7 3 6 6 3 2 1 2 2 13 8 6 5 3 11 4 9 8 10 7 8 11 12 14 14 15 15 16 16 17 17 17 19 20 17 19 22 21 19 18 15 10 6 6 7 8 10 12 12 10 10 9 8 11 11 9
2 1 4 6 6 1 5 1 3 5 2 1 1 3 3 6 7 6 3 2 1 7 7 8 8 5 4 4 3 4 2 2 3 5 5 5 6 4 4 1 4 12 11 11 6 8 11 8 11 12 13 12 9 9 10 7 5 7 17 20 23 23 23 21 20 17 17 18 18 18 22 23 2 10 13 9 7 9 12 12 10 10 10 10 12 13 11 10
Wind_Direction
245 239 235 235 234 229 226 224 228 225 224 222 219 210 200 200 205 216 211 206 199 200 216 198 191 180 175 167 153 152 149 155 169 184 197 212 193 122 157 143 151 151 153 133 127 127 132 127 123 160 90 83 289 116 256 61 60 60 92 130 274 208 109 263 330 202 167 119 205 257 170 106 109 14 32 64 34 90 75 90 38 43 42 84 111 125 131 133
248 242 236 234 233 229 223 223 226 223 221 221 221 212 204 200 201 213 208 201 196 200 194 194 201 184 172 164 154 157 156 157 176 191 205 198 182 158 159 150 149 150 141 137 157 155 132 133 141 91 112 83 300 89 334 162 50 107 149 114 216 162 246 131 204 17 91 161 160 163 80 129 183 126 272 96 218 134 104 75 88 76 69 82 106 124 132 135
248 242 238 233 232 230 222 219 223 220 215 213 221 218 211 204 204 209 215 197 192 191 193 191 198 195 168 160 159 160 147 158 178 207 214 196 181 168 159 155 154 158 162 156 169 151 143 143 129 90 44 94 339 147 60 245 73 253 118 194 256 188 93 42 50 51 10 152 123 106 64 92 181 118 137 147 198 166 162 134 62 123 135 133 132 134 139 141
245 243 238 233 231 228 223 217 213 216 212 209 216 220 209 208 206 205 211 202 193 185 187 196 193 183 164 169 159 159 121 132 213 205 212 188 181 176 168 157 160 157 95 108 134 147 125 122 125 123 100 97 252 101 151 220 131 264 95 171 203 194 93 320 40 7 347 97 135 114 84 66 356 141 123 181 97 254 246 195 164 176 161 156 153 148 147 149
243 241 238 233 230 226 222 217 219 215 210 211 212 213 208 206 204 203 206 197 191 183 179 199 192 177 165 167 163 149 125 167 220 199 181 187 173 173 171 160 161 156 131 129 85 111 140 144 142 117 110 150 162 128 203 159 189 103 201 194 133 80 81 219 109 1 334 329 83 76 88 187 280 56 98 139 158 239 214 205 208 165 157 156 160 160 154 161
241 240 237 232 229 227 223 216 213 220 215 209 209 211 209 207 205 204 201 198 189 180 179 184 194 177 172 168 161 168 152 207 136 190 158 177 168 167 165 160 157 141 126 110 126 134 146 149 136 155 157 125 182 165 207 158 127 181 271 269 249 153 142 209 52 301 36 52 83 80 181 103 73 261 234 164 186 231 217 211 180 161 165 165 153 155 164 169
239 237 234 232 228 226 221 210 207 218 218 208 207 207 208 204 205 203 203 203 188 180 174 176 175 177 186 163 180 175 191 219 171 169 160 165 166 157 155 152 139 142 127 128 132 140 159 155 156 168 136 116 187 131 168 167 123 89 200 225 251 145 136 143 138 305 46 82 88 182 50 92 71 124 168 155 244 223 247 215 148 158 146 148 156 172 173 178
236 234 233 229 226 225 216 208 205 214 217 208 205 205 206 201 200 198 198 202 197 181 171 170 172 176 161 183 162 202 201 214 182 173 159 159 158 146 139 140 147 153 148 160 159 160 150 163 168 151 152 161 198 145 191 136 164 175 248 222 244 126 161 144 155 131 89 68 174 55 62 264 180 214 114 254 241 221 203 132 119 135 148 163 165 175 179 179
234 232 229 225 222 222 209 211 207 210 215 208 206 202 195 195 197 196 189 196 194 192 177 165 170 170 171 183 199 166 212 198 147 165 153 152 146 136 137 142 157 158 163 143 168 153 134 190 148 167 183 166 176 153 192 135 238 194 187 208 336 117 164 160 160 188 186 223 113 55 272 274 265 207 255 235 244 207 173 122 136 144 155 167 178 178 177 182
231 229 223 219 217 216 210 203 204 210 214 208 199 189 179 189 194 194 192 192 191 187 181 165 161 165 171 194 198 201 200 149 127 148 150 142 137 136 150 154 164 158 147 149 153 153 166 175 145 162 121 57 157 168 177 176 212 158 173 189 183 237 142 201 164 212 204 190 171 181 254 267 261 100 272 284 259 166 142 142 150 152 168 178 179 184 181 179
230 225 220 215 203 202 208 198 195 209 211 206 195 188 184 189 191 193 189 186 187 184 169 162 153 151 179 207 190 205 98 124 155 150 146 146 142 147 153 160 164 160 148 147 163 135 134 127 155 128 115 200 134 183 145 214 151 164 177 127 80 354 354 254 217 227 111 288 192 165 240 242 275 193 219 235 271 144 144 154 161 165 176 183 183 185 189 185
227 224 220 216 204 198 201 199 193 203 207 200 183 177 181 185 187 187 183 186 171 174 158 153 153 157 180 200 212 191 194 126 158 150 149 149 156 159 156 163 167 163 156 160 158 127 111 106 57 226 174 134 138 122 235 183 113 163 149 188 191 25 302 252 213 231 160 264 184 175 332 283 196 224 213 223 188 151 152 169 172 177 182 183 186 186 188 196
223 219 215 210 202 197 199 200 192 198 197 191 178 172 173 167 175 180 182 182 184 171 161 152 154 158 161 206 209 250 213 145 151 150 150 152 139 136 151 155 143 162 171 155 144 135 104 94 71 60 155 124 149 150 180 101 112 85 74 129 115 319 266 236 236 214 179 229 168 137 276 238 227 227 223 216 194 165 159 178 187 186 186 186 185 188 195 195
220 215 207 201 201 199 200 195 191 190 191 173 180 174 174 165 159 173 171 165 198 174 167 152 145 160 197 219 148 252 142 152 145 149 157 147 134 128 118 109 109 109 105 100 97 114 91 84 80 149 20 134 161 237 111 51 59 124 164 72 159 155 251 226 195 192 193 186 165 147 232 241 252 238 236 235 186 176 188 191 191 191 192 193 185 187 195 198
215 213 207 199 200 199 196 190 183 180 179 173 164 165 160 150 157 162 164 169 200 183 163 148 147 140 206 233 302 245 104 129 153 163 159 151 135 134 149 123 115 116 118 116 119 100 85 67 80 67 353 309 105 108 117 106 55 154 106 242 264 180 273 301 220 170 188 225 178 128 247 256 243 253 266 221 180 179 192 197 197 196 196 196 190 186 192 198
211 205 204 201 198 196 191 185 180 175 176 158 160 165 161 150 134 139 162 171 190 183 151 145 157 162 157 206 221 68 141 159 175 164 172 149 148 149 147 124 118 108 116 94 111 72 74 59 97 157 134 52 141 134 127 87 238 270 165 206 204 191 248 353 298 183 177 140 259 179 226 305 297 258 233 205 165 176 183 198 198 202 203 198 195 190 190 190
209 203 201 200 198 191 188 185 172 174 170 168 164 162 154 135 110 108 138 172 189 183 157 166 162 171 162 277 29 179 167 168 152 163 165 165 146 141 132 131 135 128 113 112 112 120 133 119 288 72 349 183 151 145 126 166 143 213 190 176 211 188 186 258 316 259 158 145 215 236 240 234 262 330 276 237 177 169 187 202 204 202 202 206 199 191 187 191
205 200 194 197 198 188 187 180 174 170 170 166 159 147 135 116 108 106 104 170 169 177 151 145 153 144 235 111 170 180 159 150 163 158 161 161 140 145 141 137 130 129 129 123 128 151 180 163 217 162 125 191 167 165 164 182 169 184 188 187 272 230 192 200 155 222 147 197 191 225 239 249 248 265 291 257 276 201 205 205 205 205 205 204 199 199 195 194
203 199 193 187 185 173 166 169 168 166 163 146 140 122 113 102 82 43 113 166 182 175 179 174 163 189 164 182 175 158 168 149 136 149 152 150 148 139 127 122 138 141 154 153 180 163 170 109 128 127 176 184 184 177 162 163 174 179 172 180 163 173 217 210 227 216 172 177 217 211 225 238 247 255 256 268 258 229 237 235 237 220 205 202 201 201 198 201
199 194 189 173 169 162 161 166 166 161 145 143 137 142 134 150 157 190 191 210 218 206 83 150 181 140 125 160 163 135 113 143 141 172 155 150 137 139 130 142 143 150 154 173 163 187 154 166 186 187 177 171 172 178 181 185 174 155 160 168 199 200 238 224 219 230 177 141 215 217 233 246 255 237 240 240 239 239 247 242 232 232 209 203 206 203 203 203
193 188 179 171 162 161 163 163 162 156 154 151 152 158 189 172 163 191 157 253 270 251 166 171 179 154 135 146 143 145 145 162 156 164 166 147 140 140 156 146 159 157 185 167 155 128 168 183 202 183 177 173 176 180 199 195 135 149 168 175 216 203 222 245 203 172 176 159 255 235 251 254 250 258 247 245 231 229 223 229 229 229 225 204 203 207 205 210
191 180 165 157 160 164 162 164 162 163 158 158 167 178 166 179 166 103 134 199 222 261 198 165 145 96 151 160 155 147 139 144 168 160 167 155 159 154 166 168 171 167 161 129 112 158 194 200 180 177 166 162 167 187 204 215 190 132 145 184 209 225 151 346 39 146 199 130 273 249 231 253 254 258 259 239 229 231 222 221 222 213 224 218 203 205 207 211
179 159 155 156 165 172 163 164 162 155 150 170 180 186 180 124 118 79 89 49 54 236 178 158 146 144 157 148 154 144 141 156 153 177 172 166 167 173 161 171 174 153 155 161 170 169 193 205 164 165 157 160 169 185 201 215 195 148 134 152 206 207 144 256 296 332 247 159 214 77 298 274 261 252 252 248 236 237 225 221 226 210 213 214 205 195 199 206
165 155 159 160 154 163 162 163 155 153 169 173 180 182 147 148 135 79 68 122 142 227 171 185 143 158 161 160 168 163 153 167 156 175 180 168 169 151 162 168 160 161 175 173 174 175 180 142 145 149 164 165 171 183 195 194 217 195 178 172 205 202 212 147 207 165 337 307 13 346 308 289 240 243 250 243 235 246 242 227 234 233 222 214 211 205 195 199
161 155 159 157 156 161 163 153 156 159 142 142 98 136 162 139 86 81 86 38 303 214 155 187 279 163 153 16 165 168 159 144 173 162 169 162 145 151 178 155 155 175 166 169 149 154 127 160 154 165 167 176 171 186 200 164 196 232 223 184 193 171 99 98 118 119 27 333 295 144 331 295 288 261 248 267 289 245 238 227 232 224 224 224 220 213 213 213
157 156 154 158 160 166 158 159 169 152 157 162 149 161 168 110 98 80 93 98 206 170 155 189 158 192 145 153 156 126 123 160 166 168 161 163 149 155 147 184 174 167 158 157 166 158 157 158 161 167 173 173 183 193 187 163 172 162 248 178 194 144 122 125 143 95 137 188 284 66 195 271 328 305 258 268 238 245 247 221 236 229 223 222 223 220 215 211
154 145 146 159 168 160 161 234 141 138 147 163 162 155 145 113 102 90 85 259 231 188 166 139 157 171 176 167 141 141 162 180 0 161 170 159 163 158 156 162 160 139 151 132 102 218 163 164 168 167 166 176 184 193 192 158 133 215 232 169 177 148 129 161 144 145 169 245 313 31 134 255 292 266 257 256 254 253 246 241 237 233 229 223 218 217 217 213
150 141 145 157 161 161 125 144 153 167 164 141 150 152 125 109 91 73 79 191 220 123 178 163 211 355 158 168 155 171 128 127 149 196 179 158 142 169 179 171 170 157 163 156 187 139 161 165 165 171 175 178 194 186 141 159 165 212 216 179 181 179 159 148 128 122 175 99 275 311 357 327 252 271 286 242 280 268 250 238 238 234 229 228 225 218 213 209
137 142 150 162 160 119 103 131 160 155 120 132 137 140 124 100 95 113 146 180 159 122 45 147 26 148 151 152 164 158 141 164 151 165 173 160 213 152 173 176 145 151 158 174 167 93 169 176 168 164 169 192 178 183 179 170 167 247 104 85 87 78 75 120 105 102 57 122 248 219 168 223 273 228 261 254 223 250 245 231 231 228 225 224 228 228 221 215
142 146 156 155 136 107 122 71 102 125 135 139 148 145 111 99 110 172 190 233 124 177 198 115 172 162 155 154 161 144 147 167 92 141 75 169 196 11 85 129 142 144 134 32 101 171 149 153 159 165 192 181 166 194 159 169 157 129 91 80 62 52 68 52 74 107 69 247 239 198 202 142 290 238 209 179 219 219 242 258 255 248 240 237 232 225 216 208
150 153 154 152 146 153 126 113 130 135 132 141 152 143 107 94 160 142 188 235 62 276 149 165 158 147 160 158 154 164 145 135 148 147 146 137 127 62 126 54 106 111 65 70 80 151 122 159 179 254 147 119 153 170 34 158 146 125 95 129 87 14 24 36 5 40 200 254 226 175 186 171 217 289 276 252 285 250 210 231 244 242 237 233 225 224 220 211
152 150 140 137 127 133 141 142 150 142 139 148 144 136 142 141 252 191 179 20 160 193 139 154 164 154 158 156 144 158 150 138 157 159 155 170 147 154 179 149 164 137 158 166 177 152 149 181 190 98 315 154 158 149 274 140 171 125 124 117 142 187 77 235 67 226 219 201 300 192 156 350 242 245 285 286 263 259 237 224 236 237 244 247 247 235 228 220
142 138 125 108 116 76 127 133 142 148 147 153 136 144 149 175 188 213 129 129 236 51 228 293 160 158 158 156 161 154 151 158 163 168 159 165 160 179 176 164 175 169 161 170 153 149 184 13 181 173 190 203 159 177 158 157 200 153 162 152 147 142 186 215 169 332 290 275 265 147 173 245 289 282 231 245 261 257 246 239 241 237 227 227 233 237 201 203
137 127 112 125 114 123 134 145 145 145 135 147 138 142 70 193 188 69 133 175 197 315 265 286 158 149 162 167 163 150 158 159 164 167 165 163 169 164 182 172 173 146 133 139 146 164 148 177 220 167 199 190 180 188 172 120 155 174 113 158 178 155 167 202 174 199 214 191 229 272 130 233 138 248 231 235 246 269 261 231 222 230 209 188 187 209 160 155
117 99 100 92 105 131 148 154 147 152 126 115 126 166 176 189 95 162 130 157 162 122 263 8 169 154 159 155 157 168 156 155 170 156 173 166 177 171 167 171 189 153 141 139 204 165 183 158 174 173 136 153 159 158 124 118 94 309 152 68 153 212 109 171 200 145 170 140 225 215 212 186 198 266 285 256 255 269 282 257 237 229 186 144 137 171 189 203
102 88 93 99 128 144 142 145 140 135 138 132 141 172 185 192 186 170 187 136 148 154 159 39 286 158 163 150 164 166 232 154 168 158 176 181 171 172 173 171 179 171 163 167 155 162 157 207 192 155 195 170 175 151 165 152 177 194 136 199 197 164 105 99 23 329 101 55 245 175 296 287 297 294 278 283 280 265 308 279 266 254 238 199 201 217 231 230
105 104 75 70 85 156 142 137 142 130 134 152 160 172 174 342 322 157 154 153 164 141 116 166 263 171 166 161 163 171 144 134 167 167 165 165 186 178 170 180 174 166 182 143 110 316 162 137 326 150 133 209 117 157 167 171 133 104 180 199 105 46 108 143 215 63 207 195 259 163 220 285 8 281 302 334 285 272 261 243 238 235 250 240 240 231 223 222
107 87 80 44 340 147 151 140 131 98 91 70 145 124 273 128 232 295 120 125 114 103 116 88 108 7 160 143 171 163 152 158 165 163 162 176 172 170 166 165 180 172 170 153 144 180 120 86 270 285 153 141 104 89 105 286 339 171 188 154 146 203 201 225 117 226 191 225 254 264 210 249 194 245 310 289 244 262 232 238 240 244 233 229 240 251 263 272
96 106 88 26 335 156 139 129 121 112 74 100 149 119 246 142 69 21 338 179 152 126 122 102 88 316 196 164 147 161 158 172 165 168 149 196 157 184 179 159 176 174 158 148 135 148 131 112 114 334 142 181 119 150 186 187 7 59 124 176 190 91 303 146 199 125 125 239 118 298 128 245 209 217 219 253 263 247 214 218 227 218 216 219 231 238 240 241
121 94 61 15 306 143 131 119 114 117 103 146 166 111 148 90 317 9 15 126 81 100 148 125 16 67 39 316 167 157 181 152 168 177 173 165 161 166 183 184 163 171 153 162 118 161 145 109 143 165 307 158 183 199 198 182 163 165 169 181 194 179 249 117 225 175 172 173 191 220 258 270 248 214 211 232 242 250 196 203 214 214 220 221 218 216 216 207
66 81 75 346 247 188 129 108 117 151 140 214 83 134 21 108 59 4 31 18 93 356 135 130 143 107 200 140 149 166 163 165 167 171 169 167 173 163 208 175 164 168 148 135 122 170 97 152 147 140 150 201 200 197 212 181 184 188 181 186 180 161 133 167 235 110 138 183 230 154 248 273 266 198 201 246 246 244 220 185 200 214 219 216 222 223 201 192
100 108 145 308 323 213 133 123 143 153 109 96 165 163 113 113 56 2 24 11 60 83 31 92 83 93 71 12 6 119 148 169 176 166 186 172 196 193 179 178 169 161 159 169 164 172 137 104 123 159 181 183 166 286 298 189 174 141 162 202 177 172 149 169 204 217 168 229 106 152 308 262 247 245 253 231 228 220 213 177 195 210 219 219 220 214 209 197
66 81 63 64 356 323 129 91 106 90 96 173 94 65 81 79 95 10 53 356 58 354 68 75 162 125 288 102 338 63 27 153 177 185 166 185 191 190 159 165 152 165 164 153 121 240 87 102 112 70 49 34 19 282 26 85 133 170 212 166 157 196 196 200 186 170 177 201 197 233 257 249 283 240 249 309 17 301 159 162 150 176 178 193 182 173 173 198
88 107 89 35 8 334 145 131 138 144 115 64 113 139 151 113 98 49 59 32 70 25 96 128 91 70 139 186 102 83 347 128 209 181 187 179 196 142 158 162 161 172 177 180 155 191 142 227 129 137 123 92 356 22 221 323 212 201 196 198 194 197 191 181 109 74 161 216 174 157 235 266 268 323 317 30 31 77 96 140 144 138 185 175 177 192 203 207
117 67 67 65 15 18 117 237 158 143 138 139 141 108 108 59 49 97 115 76 27 15 73 52 107 147 104 130 94 71 48 50 140 222 72 168 185 146 167 171 171 173 183 152 149 156 76 157 155 166 165 168 174 188 188 187 198 194 200 192 201 188 186 160 206 184 216 240 155 184 237 251 279 325 324 329 22 121 269 208 220 163 177 192 210 215 215 208
159 123 156 101 32 12 330 352 104 130 129 126 88 107 93 110 85 44 81 84 64 54 51 131 15 96 124 117 115 109 100 12 62 293 24 153 117 154 173 175 175 173 166 145 148 157 131 155 192 176 183 191 187 173 73 75 53 143 169 189 199 199 181 192 205 218 222 176 190 231 231 271 281 273 274 265 268 234 215 237 185 189 239 241 229 218 214 210
68 83 147 135 108 64 268 343 104 87 130 158 93 100 55 92 129 108 17 97 55 106 89 52 350 117 144 128 122 104 100 97 350 45 305 166 193 157 175 177 175 175 156 148 157 119 108 166 192 175 198 193 144 131 136 158 179 186 182 191 189 179 173 189 197 218 203 159 254 238 226 222 232 219 247 247 251 243 257 262 262 256 241 213 218 232 242 253
79 25 54 37 114 159 140 357 164 124 125 91 107 87 122 98 48 99 34 57 108 25 105 20 50 20 117 137 143 127 154 123 104 128 300 292 169 137 161 177 180 161 142 155 179 147 145 176 187 178 196 176 150 148 151 165 182 184 188 184 190 186 186 196 213 223 192 198 222 233 220 230 245 195 225 237 224 215 207 213 212 201 194 223 234 235 229 229
112 100 62 45 85 90 63 152 139 132 125 128 104 149 150 131 137 138 143 119 64 59 17 100 60 91 100 18 109 137 155 148 202 187 198 289 184 153 144 163 199 165 163 157 189 148 130 191 169 176 176 167 171 162 160 170 182 186 196 197 195 191 198 203 215 217 211 219 232 250 241 236 243 195 212 224 246 237 240 242 51 110 226 224 212 218 223 225
90 134 193 24 91 116 126 119 122 114 139 141 88 182 132 134 130 88 39 113 136 214 144 70 121 114 81 64 20 140 158 352 156 148 220 145 323 16 167 168 129 172 180 166 172 224 168 195 152 166 158 189 198 173 170 174 177 194 198 199 197 196 204 212 219 226 221 235 242 246 247 252 250 157 211 195 215 243 278 284 234 221 221 220 211 218 225 224
152 161 143 115 92 93 98 52 105 142 152 129 105 137 119 150 140 147 149 176 145 157 164 157 118 112 110 105 64 118 16 68 45 101 161 149 138 354 112 283 202 167 151 140 176 199 184 199 147 149 174 214 209 180 181 175 180 190 197 199 195 191 203 208 215 214 203 214 227 239 251 252 247 146 204 199 216 215 221 224 220 221 219 211 208 221 224 224
56 333 89 101 92 137 125 101 90 102 127 247 111 154 133 167 158 137 91 294 141 148 153 127 122 119 145 145 165 214 199 114 211 53 56 58 88 100 75 57 359 178 158 169 172 170 185 152 165 164 186 205 195 163 151 137 142 208 210 198 196 201 203 206 219 218 211 206 216 223 232 236 167 143 217 210 187 210 223 221 222 225 218 202 210 220 221 218